Year,Month,Day,Hour,Minute,Value (Times are PST for temperature in C)
2011,05,31,00,00,7.10
2011,05,31,00,01,7.10
2011,05,31,00,02,7.10
2011,05,31,00,03,7.10
2011,05,31,00,04,7.00
2011,05,31,00,05,7.00
2011,05,31,00,06,7.00
2011,05,31,00,07,7.00
2011,05,31,00,08,7.00
2011,05,31,00,09,7.00
2011,05,31,00,10,7.00
2011,05,31,00,11,7.00
2011,05,31,00,12,7.00
2011,05,31,00,13,7.00
2011,05,31,00,14,7.00
2011,05,31,00,15,7.00
2011,05,31,00,16,7.00
2011,05,31,00,17,7.00
2011,05,31,00,18,7.00
2011,05,31,00,19,7.00
2011,05,31,00,20,7.00
2011,05,31,00,21,7.00
2011,05,31,00,22,7.00
2011,05,31,00,23,7.00
2011,05,31,00,24,6.90
2011,05,31,00,25,6.90
2011,05,31,00,26,6.90
2011,05,31,00,27,6.90
2011,05,31,00,28,6.90
2011,05,31,00,29,6.90
2011,05,31,00,30,6.90
2011,05,31,00,31,6.90
2011,05,31,00,32,6.80
2011,05,31,00,33,6.80
2011,05,31,00,34,6.80
2011,05,31,00,35,6.80
2011,05,31,00,36,6.80
2011,05,31,00,37,6.80
2011,05,31,00,38,6.80
2011,05,31,00,39,6.80
2011,05,31,00,40,6.80
2011,05,31,00,41,6.80
2011,05,31,00,42,6.80
2011,05,31,00,43,6.80
2011,05,31,00,44,6.80
2011,05,31,00,45,6.80
2011,05,31,00,46,6.80
2011,05,31,00,47,6.80
2011,05,31,00,48,6.80
2011,05,31,00,49,6.80
2011,05,31,00,50,6.80
2011,05,31,00,51,6.80
2011,05,31,00,52,6.80
2011,05,31,00,53,6.80
2011,05,31,00,54,6.80
2011,05,31,00,55,6.70
2011,05,31,00,56,6.70
2011,05,31,00,57,6.70
2011,05,31,00,58,6.70
2011,05,31,00,59,6.70
2011,05,31,01,00,6.70
2011,05,31,01,01,6.70
2011,05,31,01,02,6.70
2011,05,31,01,03,6.70
2011,05,31,01,04,6.70
2011,05,31,01,05,6.70
2011,05,31,01,06,6.70
2011,05,31,01,07,6.70
2011,05,31,01,08,6.70
2011,05,31,01,09,6.70
2011,05,31,01,10,6.70
2011,05,31,01,11,6.70
2011,05,31,01,12,6.60
2011,05,31,01,13,6.60
2011,05,31,01,14,6.60
2011,05,31,01,15,6.60
2011,05,31,01,16,6.60
2011,05,31,01,17,6.60
2011,05,31,01,18,6.60
2011,05,31,01,19,6.60
2011,05,31,01,20,6.60
2011,05,31,01,21,6.60
2011,05,31,01,22,6.60
2011,05,31,01,23,6.60
2011,05,31,01,24,6.60
2011,05,31,01,25,6.60
2011,05,31,01,26,6.60
2011,05,31,01,27,6.60
2011,05,31,01,28,6.60
2011,05,31,01,29,6.60
2011,05,31,01,30,6.60
2011,05,31,01,31,6.60
2011,05,31,01,32,6.60
2011,05,31,01,33,6.60
2011,05,31,01,34,6.60
2011,05,31,01,35,6.60
2011,05,31,01,36,6.60
2011,05,31,01,37,6.60
2011,05,31,01,38,6.60
2011,05,31,01,39,6.60
2011,05,31,01,40,6.60
2011,05,31,01,41,6.60
2011,05,31,01,42,6.40
2011,05,31,01,43,6.40
2011,05,31,01,44,6.40
2011,05,31,01,45,6.40
2011,05,31,01,46,6.40
2011,05,31,01,47,6.40
2011,05,31,01,48,6.40
2011,05,31,01,49,6.40
2011,05,31,01,50,6.40
2011,05,31,01,51,6.40
2011,05,31,01,52,6.40
2011,05,31,01,53,6.40
2011,05,31,01,54,6.40
2011,05,31,01,55,6.40
2011,05,31,01,56,6.40
2011,05,31,01,57,6.40
2011,05,31,01,58,6.40
2011,05,31,01,59,6.40
2011,05,31,02,00,6.40
2011,05,31,02,01,6.30
2011,05,31,02,02,6.30
2011,05,31,02,03,6.30
2011,05,31,02,04,6.30
2011,05,31,02,05,6.30
2011,05,31,02,06,6.30
2011,05,31,02,07,6.30
2011,05,31,02,08,6.30
2011,05,31,02,09,6.20
2011,05,31,02,10,6.20
2011,05,31,02,11,6.20
2011,05,31,02,12,6.20
2011,05,31,02,13,6.20
2011,05,31,02,14,6.20
2011,05,31,02,15,6.20
2011,05,31,02,16,6.20
2011,05,31,02,17,6.20
2011,05,31,02,18,6.20
2011,05,31,02,19,6.20
2011,05,31,02,20,6.20
2011,05,31,02,21,6.20
2011,05,31,02,22,6.20
2011,05,31,02,23,6.20
2011,05,31,02,24,6.20
2011,05,31,02,25,6.20
2011,05,31,02,26,6.20
2011,05,31,02,27,6.20
2011,05,31,02,28,6.20
2011,05,31,02,29,6.20
2011,05,31,02,30,6.20
2011,05,31,02,31,6.20
2011,05,31,02,32,6.20
2011,05,31,02,33,6.20
2011,05,31,02,34,6.20
2011,05,31,02,35,6.20
2011,05,31,02,36,6.20
2011,05,31,02,37,6.10
2011,05,31,02,38,6.10
2011,05,31,02,39,6.10
2011,05,31,02,40,6.10
2011,05,31,02,41,6.10
2011,05,31,02,42,6.10
2011,05,31,02,43,6.00
2011,05,31,02,44,6.00
2011,05,31,02,45,6.00
2011,05,31,02,46,6.00
2011,05,31,02,47,6.00
2011,05,31,02,48,6.00
2011,05,31,02,49,6.00
2011,05,31,02,50,6.00
2011,05,31,02,51,6.00
2011,05,31,02,52,6.00
2011,05,31,02,53,6.00
2011,05,31,02,54,6.00
2011,05,31,02,55,6.00
2011,05,31,02,56,5.90
2011,05,31,02,57,5.90
2011,05,31,02,58,5.90
2011,05,31,02,59,5.90
2011,05,31,03,00,5.90
2011,05,31,03,01,5.90
2011,05,31,03,02,5.90
2011,05,31,03,03,5.80
2011,05,31,03,04,5.80
2011,05,31,03,05,5.80
2011,05,31,03,06,5.80
2011,05,31,03,07,5.70
2011,05,31,03,08,5.70
2011,05,31,03,09,5.70
2011,05,31,03,10,5.70
2011,05,31,03,11,5.70
2011,05,31,03,12,5.70
2011,05,31,03,13,5.70
2011,05,31,03,14,5.70
2011,05,31,03,15,5.70
2011,05,31,03,16,5.70
2011,05,31,03,17,5.70
2011,05,31,03,18,5.70
2011,05,31,03,19,5.70
2011,05,31,03,20,5.70
2011,05,31,03,21,5.70
2011,05,31,03,22,5.70
2011,05,31,03,23,5.70
2011,05,31,03,24,5.80
2011,05,31,03,25,5.80
2011,05,31,03,26,5.80
2011,05,31,03,27,5.80
2011,05,31,03,28,5.90
2011,05,31,03,29,5.90
2011,05,31,03,30,6.00
2011,05,31,03,31,6.00
2011,05,31,03,32,6.00
2011,05,31,03,33,6.10
2011,05,31,03,34,6.10
2011,05,31,03,35,6.10
2011,05,31,03,36,6.20
2011,05,31,03,37,6.20
2011,05,31,03,38,6.20
2011,05,31,03,39,6.20
2011,05,31,03,40,6.20
2011,05,31,03,41,6.30
2011,05,31,03,42,6.30
2011,05,31,03,43,6.30
2011,05,31,03,44,6.40
2011,05,31,03,45,6.40
2011,05,31,03,46,6.40
2011,05,31,03,47,6.40
2011,05,31,03,48,6.40
2011,05,31,03,49,6.50
2011,05,31,03,50,6.60
2011,05,31,03,51,6.60
2011,05,31,03,52,6.60
2011,05,31,03,53,6.60
2011,05,31,03,54,6.60
2011,05,31,03,55,6.60
2011,05,31,03,56,6.60
2011,05,31,03,57,6.70
2011,05,31,03,58,6.70
2011,05,31,03,59,6.70
2011,05,31,04,00,6.70
2011,05,31,04,01,6.70
2011,05,31,04,02,6.80
2011,05,31,04,03,6.80
2011,05,31,04,04,6.80
2011,05,31,04,05,6.80
2011,05,31,04,06,6.80
2011,05,31,04,07,6.80
2011,05,31,04,08,6.80
2011,05,31,04,09,6.80
2011,05,31,04,10,6.80
2011,05,31,04,11,6.80
2011,05,31,04,12,6.80
2011,05,31,04,13,6.80
2011,05,31,04,14,6.80
2011,05,31,04,15,6.80
2011,05,31,04,16,6.80
2011,05,31,04,17,6.80
2011,05,31,04,18,6.80
2011,05,31,04,19,6.80
2011,05,31,04,20,6.80
2011,05,31,04,21,6.80
2011,05,31,04,22,6.80
2011,05,31,04,23,6.80
2011,05,31,04,24,6.80
2011,05,31,04,25,6.80
2011,05,31,04,26,6.80
2011,05,31,04,27,6.80
2011,05,31,04,28,6.80
2011,05,31,04,29,6.80
2011,05,31,04,30,6.80
2011,05,31,04,31,6.90
2011,05,31,04,32,6.90
2011,05,31,04,33,6.90
2011,05,31,04,34,6.90
2011,05,31,04,35,7.00
2011,05,31,04,36,7.00
2011,05,31,04,37,7.00
2011,05,31,04,38,7.10
2011,05,31,04,39,7.10
2011,05,31,04,40,7.20
2011,05,31,04,41,7.20
2011,05,31,04,42,7.30
2011,05,31,04,43,7.30
2011,05,31,04,44,7.30
2011,05,31,04,45,7.30
2011,05,31,04,46,7.30
2011,05,31,04,47,7.30
2011,05,31,04,48,7.30
2011,05,31,04,49,7.40
2011,05,31,04,50,7.40
2011,05,31,04,51,7.40
2011,05,31,04,52,7.40
2011,05,31,04,53,7.50
2011,05,31,04,54,7.50
2011,05,31,04,55,7.50
2011,05,31,04,56,7.60
2011,05,31,04,57,7.60
2011,05,31,04,58,7.60
2011,05,31,04,59,7.60
2011,05,31,05,00,7.70
2011,05,31,05,01,7.70
2011,05,31,05,02,7.80
2011,05,31,05,03,7.80
2011,05,31,05,04,7.80
2011,05,31,05,05,7.80
2011,05,31,05,06,7.80
2011,05,31,05,07,7.80
2011,05,31,05,08,7.90
2011,05,31,05,09,7.90
2011,05,31,05,10,8.00
2011,05,31,05,11,8.00
2011,05,31,05,12,8.00
2011,05,31,05,13,8.10
2011,05,31,05,14,8.10
2011,05,31,05,15,8.10
2011,05,31,05,16,8.20
2011,05,31,05,17,8.20
2011,05,31,05,18,8.20
2011,05,31,05,19,8.20
2011,05,31,05,20,8.20
2011,05,31,05,21,8.20
2011,05,31,05,22,8.20
2011,05,31,05,23,8.20
2011,05,31,05,24,8.20
2011,05,31,05,25,8.20
2011,05,31,05,26,8.20
2011,05,31,05,27,8.30
2011,05,31,05,28,8.30
2011,05,31,05,29,8.30
2011,05,31,05,30,8.30
2011,05,31,05,31,8.30
2011,05,31,05,32,8.40
2011,05,31,05,33,8.40
2011,05,31,05,34,8.40
2011,05,31,05,35,8.40
2011,05,31,05,36,8.40
2011,05,31,05,37,8.40
2011,05,31,05,38,8.50
2011,05,31,05,39,8.50
2011,05,31,05,40,8.50
2011,05,31,05,41,8.50
2011,05,31,05,42,8.50
2011,05,31,05,43,8.50
2011,05,31,05,44,8.60
2011,05,31,05,45,8.60
2011,05,31,05,46,8.60
2011,05,31,05,47,8.60
2011,05,31,05,48,8.70
2011,05,31,05,49,8.70
2011,05,31,05,50,8.70
2011,05,31,05,51,8.70
2011,05,31,05,52,8.70
2011,05,31,05,53,8.70
2011,05,31,05,54,8.70
2011,05,31,05,55,8.70
2011,05,31,05,56,8.70
2011,05,31,05,57,8.70
2011,05,31,05,58,8.70
2011,05,31,05,59,8.70
2011,05,31,06,00,8.80
2011,05,31,06,01,8.80
2011,05,31,06,02,8.80
2011,05,31,06,03,8.80
2011,05,31,06,04,8.80
2011,05,31,06,05,8.90
2011,05,31,06,06,8.90
2011,05,31,06,07,8.90
2011,05,31,06,08,8.90
2011,05,31,06,09,8.90
2011,05,31,06,10,8.90
2011,05,31,06,11,8.90
2011,05,31,06,12,9.00
2011,05,31,06,13,9.00
2011,05,31,06,14,9.00
2011,05,31,06,15,9.00
2011,05,31,06,16,9.00
2011,05,31,06,17,9.10
2011,05,31,06,18,9.10
2011,05,31,06,19,9.10
2011,05,31,06,20,9.10
2011,05,31,06,21,9.20
2011,05,31,06,22,9.20
2011,05,31,06,23,9.20
2011,05,31,06,24,9.20
2011,05,31,06,25,9.20
2011,05,31,06,26,9.20
2011,05,31,06,27,9.20
2011,05,31,06,28,9.20
2011,05,31,06,29,9.20
2011,05,31,06,30,9.30
2011,05,31,06,31,9.30
2011,05,31,06,32,9.30
2011,05,31,06,33,9.30
2011,05,31,06,34,9.30
2011,05,31,06,35,9.40
2011,05,31,06,36,9.40
2011,05,31,06,37,9.40
2011,05,31,06,38,9.40
2011,05,31,06,39,9.50
2011,05,31,06,40,9.50
2011,05,31,06,41,9.50
2011,05,31,06,42,9.50
2011,05,31,06,43,9.60
2011,05,31,06,44,9.60
2011,05,31,06,45,9.60
2011,05,31,06,46,9.60
2011,05,31,06,47,9.70
2011,05,31,06,48,9.70
2011,05,31,06,49,9.70
2011,05,31,06,50,9.70
2011,05,31,06,51,9.70
2011,05,31,06,52,9.80
2011,05,31,06,53,9.80
2011,05,31,06,54,9.90
2011,05,31,06,55,9.90
2011,05,31,06,56,9.90
2011,05,31,06,57,9.90
2011,05,31,06,58,10.00
2011,05,31,06,59,10.10
2011,05,31,07,00,10.10
2011,05,31,07,01,10.10
2011,05,31,07,02,10.20
2011,05,31,07,03,10.20
2011,05,31,07,04,10.30
2011,05,31,07,05,10.30
2011,05,31,07,06,10.30
2011,05,31,07,07,10.40
2011,05,31,07,08,10.40
2011,05,31,07,09,10.50
2011,05,31,07,10,10.60
2011,05,31,07,11,10.60
2011,05,31,07,12,10.60
2011,05,31,07,13,10.70
2011,05,31,07,14,10.70
2011,05,31,07,15,10.80
2011,05,31,07,16,10.80
2011,05,31,07,17,10.90
2011,05,31,07,18,10.90
2011,05,31,07,19,10.90
2011,05,31,07,20,10.90
2011,05,31,07,21,11.00
2011,05,31,07,22,11.10
2011,05,31,07,23,11.10
2011,05,31,07,24,11.10
2011,05,31,07,25,11.20
2011,05,31,07,26,11.20
2011,05,31,07,27,11.20
2011,05,31,07,28,11.20
2011,05,31,07,29,11.20
2011,05,31,07,30,11.30
2011,05,31,07,31,11.30
2011,05,31,07,32,11.30
2011,05,31,07,33,11.40
2011,05,31,07,34,11.40
2011,05,31,07,35,11.40
2011,05,31,07,36,11.40
2011,05,31,07,37,11.40
2011,05,31,07,38,11.50
2011,05,31,07,39,11.60
2011,05,31,07,40,11.60
2011,05,31,07,41,11.60
2011,05,31,07,42,11.60
2011,05,31,07,43,11.70
2011,05,31,07,44,11.70
2011,05,31,07,45,11.70
2011,05,31,07,46,11.80
2011,05,31,07,47,11.80
2011,05,31,07,48,11.80
2011,05,31,07,49,11.80
2011,05,31,07,50,11.80
2011,05,31,07,51,11.80
2011,05,31,07,52,11.80
2011,05,31,07,53,11.90
2011,05,31,07,54,11.90
2011,05,31,07,55,11.90
2011,05,31,07,56,12.00
2011,05,31,07,57,12.00
2011,05,31,07,58,12.00
2011,05,31,07,59,12.00
2011,05,31,08,00,12.00
2011,05,31,08,01,12.00
2011,05,31,08,02,12.00
2011,05,31,08,03,12.00
2011,05,31,08,04,12.00
2011,05,31,08,05,12.00
2011,05,31,08,06,12.00
2011,05,31,08,07,12.10
2011,05,31,08,08,12.10
2011,05,31,08,09,12.10
2011,05,31,08,10,12.10
2011,05,31,08,11,12.10
2011,05,31,08,12,12.10
2011,05,31,08,13,12.20
2011,05,31,08,14,12.20
2011,05,31,08,15,12.20
2011,05,31,08,16,12.30
2011,05,31,08,17,12.30
2011,05,31,08,18,12.30
2011,05,31,08,19,12.30
2011,05,31,08,20,12.40
2011,05,31,08,21,12.40
2011,05,31,08,22,12.40
2011,05,31,08,23,12.50
2011,05,31,08,24,12.50
2011,05,31,08,25,12.50
2011,05,31,08,26,12.60
2011,05,31,08,27,12.60
2011,05,31,08,28,12.60
2011,05,31,08,29,12.70
2011,05,31,08,30,12.70
2011,05,31,08,31,12.70
2011,05,31,08,32,12.80
2011,05,31,08,33,12.80
2011,05,31,08,34,12.80
2011,05,31,08,35,12.80
2011,05,31,08,36,12.80
2011,05,31,08,37,12.80
2011,05,31,08,38,12.80
2011,05,31,08,39,12.80
2011,05,31,08,40,12.80
2011,05,31,08,41,12.80
2011,05,31,08,42,12.90
2011,05,31,08,43,12.90
2011,05,31,08,44,12.90
2011,05,31,08,45,13.00
2011,05,31,08,46,13.00
2011,05,31,08,47,13.00
2011,05,31,08,48,13.10
2011,05,31,08,49,13.10
2011,05,31,08,50,13.20
2011,05,31,08,51,13.20
2011,05,31,08,52,13.20
2011,05,31,08,53,13.20
2011,05,31,08,54,13.20
2011,05,31,08,55,13.20
2011,05,31,08,56,13.30
2011,05,31,08,57,13.30
2011,05,31,08,58,13.30
2011,05,31,08,59,13.30
2011,05,31,09,00,13.30
2011,05,31,09,01,13.30
2011,05,31,09,02,13.30
2011,05,31,09,03,13.30
2011,05,31,09,04,13.40
2011,05,31,09,05,13.50
2011,05,31,09,06,13.60
2011,05,31,09,07,13.60
2011,05,31,09,08,13.70
2011,05,31,09,09,13.80
2011,05,31,09,10,13.90
2011,05,31,09,11,14.00
2011,05,31,09,12,14.00
2011,05,31,09,13,14.10
2011,05,31,09,14,14.00
2011,05,31,09,15,14.00
2011,05,31,09,16,14.00
2011,05,31,09,17,14.00
2011,05,31,09,18,14.00
2011,05,31,09,19,14.10
2011,05,31,09,20,14.10
2011,05,31,09,21,14.10
2011,05,31,09,22,14.20
2011,05,31,09,23,14.20
2011,05,31,09,24,14.20
2011,05,31,09,25,14.30
2011,05,31,09,26,14.40
2011,05,31,09,27,14.40
2011,05,31,09,28,14.50
2011,05,31,09,29,14.50
2011,05,31,09,30,14.60
2011,05,31,09,31,14.60
2011,05,31,09,32,14.60
2011,05,31,09,33,14.60
2011,05,31,09,34,14.60
2011,05,31,09,35,14.60
2011,05,31,09,36,14.60
2011,05,31,09,37,14.70
2011,05,31,09,38,14.70
2011,05,31,09,39,14.70
2011,05,31,09,40,14.70
2011,05,31,09,41,14.70
2011,05,31,09,42,14.80
2011,05,31,09,43,14.80
2011,05,31,09,44,14.80
2011,05,31,09,45,14.80
2011,05,31,09,46,14.80
2011,05,31,09,47,14.80
2011,05,31,09,48,14.90
2011,05,31,09,49,14.90
2011,05,31,09,50,14.90
2011,05,31,09,51,15.00
2011,05,31,09,52,15.00
2011,05,31,09,53,15.10
2011,05,31,09,54,15.10
2011,05,31,09,55,15.10
2011,05,31,09,56,15.10
2011,05,31,09,57,15.10
2011,05,31,09,58,15.20
2011,05,31,09,59,15.20
2011,05,31,10,00,15.20
2011,05,31,10,01,15.20
2011,05,31,10,02,15.20
2011,05,31,10,03,15.20
2011,05,31,10,04,15.20
2011,05,31,10,05,15.20
2011,05,31,10,06,15.20
2011,05,31,10,07,15.10
2011,05,31,10,08,15.10
2011,05,31,10,09,15.10
2011,05,31,10,10,15.00
2011,05,31,10,11,15.00
2011,05,31,10,12,14.90
2011,05,31,10,13,14.90
2011,05,31,10,14,14.80
2011,05,31,10,15,14.80
2011,05,31,10,16,14.80
2011,05,31,10,17,14.70
2011,05,31,10,18,14.70
2011,05,31,10,19,14.70
2011,05,31,10,20,14.70
2011,05,31,10,21,14.70
2011,05,31,10,22,14.70
2011,05,31,10,23,14.70
2011,05,31,10,24,14.60
2011,05,31,10,25,14.60
2011,05,31,10,26,14.60
2011,05,31,10,27,14.70
2011,05,31,10,28,14.70
2011,05,31,10,29,14.70
2011,05,31,10,30,14.80
2011,05,31,10,31,14.80
2011,05,31,10,32,14.80
2011,05,31,10,33,14.80
2011,05,31,10,34,14.80
2011,05,31,10,35,14.70
2011,05,31,10,36,14.70
2011,05,31,10,37,14.70
2011,05,31,10,38,14.60
2011,05,31,10,39,14.60
2011,05,31,10,40,14.60
2011,05,31,10,41,14.60
2011,05,31,10,42,14.60
2011,05,31,10,43,14.60
2011,05,31,10,44,14.60
2011,05,31,10,45,14.60
2011,05,31,10,46,14.60
2011,05,31,10,47,14.60
2011,05,31,10,48,14.60
2011,05,31,10,49,14.60
2011,05,31,10,50,14.60
2011,05,31,10,51,14.60
2011,05,31,10,52,14.60
2011,05,31,10,53,14.70
2011,05,31,10,54,14.70
2011,05,31,10,55,14.80
2011,05,31,10,56,14.80
2011,05,31,10,57,14.90
2011,05,31,10,58,14.90
2011,05,31,10,59,15.00
2011,05,31,11,00,15.00
2011,05,31,11,01,15.00
2011,05,31,11,02,15.10
2011,05,31,11,03,15.20
2011,05,31,11,04,15.20
2011,05,31,11,05,15.40
2011,05,31,11,06,15.50
2011,05,31,11,07,15.60
2011,05,31,11,08,15.80
2011,05,31,11,09,15.80
2011,05,31,11,10,16.00
2011,05,31,11,11,16.10
2011,05,31,11,12,16.30
2011,05,31,11,13,16.40
2011,05,31,11,14,16.60
2011,05,31,11,15,16.70
2011,05,31,11,16,16.80
2011,05,31,11,17,16.90
2011,05,31,11,18,16.90
2011,05,31,11,19,17.00
2011,05,31,11,20,17.00
2011,05,31,11,21,17.00
2011,05,31,11,22,17.00
2011,05,31,11,23,17.00
2011,05,31,11,24,17.00
2011,05,31,11,25,16.90
2011,05,31,11,26,16.80
2011,05,31,11,27,16.70
2011,05,31,11,28,16.70
2011,05,31,11,29,16.50
2011,05,31,11,30,16.40
2011,05,31,11,31,16.30
2011,05,31,11,32,16.20
2011,05,31,11,33,16.10
2011,05,31,11,34,16.00
2011,05,31,11,35,15.90
2011,05,31,11,36,15.80
2011,05,31,11,37,15.80
2011,05,31,11,38,15.80
2011,05,31,11,39,15.80
2011,05,31,11,40,15.80
2011,05,31,11,41,15.80
2011,05,31,11,42,15.80
2011,05,31,11,43,15.80
2011,05,31,11,44,15.90
2011,05,31,11,45,15.90
2011,05,31,11,46,16.10
2011,05,31,11,47,16.10
2011,05,31,11,48,16.20
2011,05,31,11,49,16.20
2011,05,31,11,50,16.30
2011,05,31,11,51,16.30
2011,05,31,11,52,16.30
2011,05,31,11,53,16.30
2011,05,31,11,54,16.30
2011,05,31,11,55,16.40
2011,05,31,11,56,16.40
2011,05,31,11,57,16.40
2011,05,31,11,58,16.40
2011,05,31,11,59,16.40
2011,05,31,12,00,16.30
2011,05,31,12,01,16.20
2011,05,31,12,02,16.10
2011,05,31,12,03,16.10
2011,05,31,12,04,16.00
2011,05,31,12,05,15.80
2011,05,31,12,06,15.70
2011,05,31,12,07,15.60
2011,05,31,12,08,15.60
2011,05,31,12,09,15.60
2011,05,31,12,10,15.60
2011,05,31,12,11,15.70
2011,05,31,12,12,15.70
2011,05,31,12,13,15.70
2011,05,31,12,14,15.70
2011,05,31,12,15,15.70
2011,05,31,12,16,15.70
2011,05,31,12,17,15.70
2011,05,31,12,18,15.70
2011,05,31,12,19,15.70
2011,05,31,12,20,15.70
2011,05,31,12,21,15.60
2011,05,31,12,22,15.60
2011,05,31,12,23,15.60
2011,05,31,12,24,15.60
2011,05,31,12,25,15.50
2011,05,31,12,26,15.50
2011,05,31,12,27,15.40
2011,05,31,12,28,15.40
2011,05,31,12,29,15.40
2011,05,31,12,30,15.40
2011,05,31,12,31,15.50
2011,05,31,12,32,15.50
2011,05,31,12,33,15.60
2011,05,31,12,34,15.60
2011,05,31,12,35,15.70
2011,05,31,12,36,15.70
2011,05,31,12,37,15.70
2011,05,31,12,38,15.80
2011,05,31,12,39,15.80
2011,05,31,12,40,15.80
2011,05,31,12,41,15.80
2011,05,31,12,42,15.80
2011,05,31,12,43,15.80
2011,05,31,12,44,15.80
2011,05,31,12,45,15.80
2011,05,31,12,46,15.80
2011,05,31,12,47,15.80
2011,05,31,12,48,15.70
2011,05,31,12,49,15.70
2011,05,31,12,50,15.70
2011,05,31,12,51,15.70
2011,05,31,12,52,15.70
2011,05,31,12,53,15.70
2011,05,31,12,54,15.70
2011,05,31,12,55,15.70
2011,05,31,12,56,15.70
2011,05,31,12,57,15.70
2011,05,31,12,58,15.70
2011,05,31,12,59,15.70
2011,05,31,13,00,15.70
2011,05,31,13,01,15.70
2011,05,31,13,02,15.70
2011,05,31,13,03,15.80
2011,05,31,13,04,15.80
2011,05,31,13,05,15.80
2011,05,31,13,06,15.80
2011,05,31,13,07,15.90
2011,05,31,13,08,16.00
2011,05,31,13,09,16.10
2011,05,31,13,10,16.10
2011,05,31,13,11,16.20
2011,05,31,13,12,16.20
2011,05,31,13,13,16.30
2011,05,31,13,14,16.30
2011,05,31,13,15,16.40
2011,05,31,13,16,16.40
2011,05,31,13,17,16.40
2011,05,31,13,18,16.40
2011,05,31,13,19,16.40
2011,05,31,13,20,16.50
2011,05,31,13,21,16.60
2011,05,31,13,22,16.60
2011,05,31,13,23,16.60
2011,05,31,13,24,16.70
2011,05,31,13,25,16.70
2011,05,31,13,26,16.70
2011,05,31,13,27,16.70
2011,05,31,13,28,16.70
2011,05,31,13,29,16.70
2011,05,31,13,30,16.70
2011,05,31,13,31,16.70
2011,05,31,13,32,16.60
2011,05,31,13,33,16.60
2011,05,31,13,34,16.50
2011,05,31,13,35,16.40
2011,05,31,13,36,16.40
2011,05,31,13,37,16.30
2011,05,31,13,38,16.20
2011,05,31,13,39,16.20
2011,05,31,13,40,16.20
2011,05,31,13,41,16.10
2011,05,31,13,42,16.10
2011,05,31,13,43,16.00
2011,05,31,13,44,15.90
2011,05,31,13,45,15.90
2011,05,31,13,46,15.90
2011,05,31,13,47,15.90
2011,05,31,13,48,15.80
2011,05,31,13,49,15.80
2011,05,31,13,50,15.80
2011,05,31,13,51,15.80
2011,05,31,13,52,15.80
2011,05,31,13,53,15.80
2011,05,31,13,54,15.80
2011,05,31,13,55,15.80
2011,05,31,13,56,15.80
2011,05,31,13,57,15.80
2011,05,31,13,58,15.80
2011,05,31,13,59,15.80
2011,05,31,14,00,15.80
2011,05,31,14,01,15.80
2011,05,31,14,02,15.90
2011,05,31,14,03,15.90
2011,05,31,14,04,16.00
2011,05,31,14,05,16.10
2011,05,31,14,06,16.10
2011,05,31,14,07,16.10
2011,05,31,14,08,16.10
2011,05,31,14,09,16.20
2011,05,31,14,10,16.20
2011,05,31,14,11,16.10
2011,05,31,14,12,16.10
2011,05,31,14,13,16.10
2011,05,31,14,14,16.20
2011,05,31,14,15,16.10
2011,05,31,14,16,16.20
2011,05,31,14,17,16.10
2011,05,31,14,18,16.10
2011,05,31,14,19,16.10
2011,05,31,14,20,16.10
2011,05,31,14,21,16.10
2011,05,31,14,22,16.10
2011,05,31,14,23,16.10
2011,05,31,14,24,16.10
2011,05,31,14,25,16.20
2011,05,31,14,26,16.20
2011,05,31,14,27,16.20
2011,05,31,14,28,16.20
2011,05,31,14,29,16.20
2011,05,31,14,30,16.10
2011,05,31,14,31,16.20
2011,05,31,14,32,16.10
2011,05,31,14,33,16.20
2011,05,31,14,34,16.20
2011,05,31,14,35,16.30
2011,05,31,14,36,16.40
2011,05,31,14,37,16.40
2011,05,31,14,38,16.40
2011,05,31,14,39,16.40
2011,05,31,14,40,16.50
2011,05,31,14,41,16.60
2011,05,31,14,42,16.60
2011,05,31,14,43,16.60
2011,05,31,14,44,16.60
2011,05,31,14,45,16.60
2011,05,31,14,46,16.70
2011,05,31,14,47,16.70
2011,05,31,14,48,16.70
2011,05,31,14,49,16.70
2011,05,31,14,50,16.70
2011,05,31,14,51,16.70
2011,05,31,14,52,16.70
2011,05,31,14,53,16.70
2011,05,31,14,54,16.70
2011,05,31,14,55,16.80
2011,05,31,14,56,16.90
2011,05,31,14,57,17.00
2011,05,31,14,58,17.00
2011,05,31,14,59,17.10
2011,05,31,15,00,17.20
2011,05,31,15,01,17.20
2011,05,31,15,02,17.20
2011,05,31,15,03,17.30
2011,05,31,15,04,17.30
2011,05,31,15,05,17.30
2011,05,31,15,06,17.40
2011,05,31,15,07,17.50
2011,05,31,15,08,17.50
2011,05,31,15,09,17.60
2011,05,31,15,10,17.70
2011,05,31,15,11,17.80
2011,05,31,15,12,17.80
2011,05,31,15,13,17.80
2011,05,31,15,14,17.90
2011,05,31,15,15,17.80
2011,05,31,15,16,17.80
2011,05,31,15,17,17.90
2011,05,31,15,18,17.90
2011,05,31,15,19,17.90
2011,05,31,15,20,17.90
2011,05,31,15,21,17.80
2011,05,31,15,22,17.60
2011,05,31,15,23,17.50
2011,05,31,15,24,17.50
2011,05,31,15,25,17.50
2011,05,31,15,26,17.50
2011,05,31,15,27,17.50
2011,05,31,15,28,17.60
2011,05,31,15,29,17.60
2011,05,31,15,30,17.70
2011,05,31,15,31,17.70
2011,05,31,15,32,17.80
2011,05,31,15,33,17.80
2011,05,31,15,34,17.90
2011,05,31,15,35,17.90
2011,05,31,15,36,18.00
2011,05,31,15,37,18.10
2011,05,31,15,38,18.20
2011,05,31,15,39,18.30
2011,05,31,15,40,18.30
2011,05,31,15,41,18.50
2011,05,31,15,42,18.50
2011,05,31,15,43,18.60
2011,05,31,15,44,18.70
2011,05,31,15,45,18.70
2011,05,31,15,46,18.70
2011,05,31,15,47,18.60
2011,05,31,15,48,18.60
2011,05,31,15,49,18.60
2011,05,31,15,50,18.60
2011,05,31,15,51,18.70
2011,05,31,15,52,18.60
2011,05,31,15,53,18.50
2011,05,31,15,54,18.40
2011,05,31,15,55,18.30
2011,05,31,15,56,18.30
2011,05,31,15,57,18.20
2011,05,31,15,58,18.20
2011,05,31,15,59,18.20
2011,05,31,16,00,18.20
2011,05,31,16,01,18.20
2011,05,31,16,02,18.20
2011,05,31,16,03,18.00
2011,05,31,16,04,17.90
2011,05,31,16,05,17.90
2011,05,31,16,06,17.90
2011,05,31,16,07,17.90
2011,05,31,16,08,17.90
2011,05,31,16,09,18.00
2011,05,31,16,10,18.10
2011,05,31,16,11,18.10
2011,05,31,16,12,18.20
2011,05,31,16,13,18.20
2011,05,31,16,14,18.20
2011,05,31,16,15,18.30
2011,05,31,16,16,18.30
2011,05,31,16,17,18.40
2011,05,31,16,18,18.30
2011,05,31,16,19,18.30
2011,05,31,16,20,18.30
2011,05,31,16,21,18.40
2011,05,31,16,22,18.40
2011,05,31,16,23,18.30
2011,05,31,16,24,18.30
2011,05,31,16,25,18.40
2011,05,31,16,26,18.40
2011,05,31,16,27,18.40
2011,05,31,16,28,18.30
2011,05,31,16,29,18.20
2011,05,31,16,30,18.20
2011,05,31,16,31,18.10
2011,05,31,16,32,18.10
2011,05,31,16,33,18.10
2011,05,31,16,34,18.10
2011,05,31,16,35,18.10
2011,05,31,16,36,18.00
2011,05,31,16,37,17.90
2011,05,31,16,38,17.80
2011,05,31,16,39,17.70
2011,05,31,16,40,17.50
2011,05,31,16,41,17.40
2011,05,31,16,42,17.30
2011,05,31,16,43,17.20
2011,05,31,16,44,17.20
2011,05,31,16,45,17.20
2011,05,31,16,46,17.20
2011,05,31,16,47,17.10
2011,05,31,16,48,17.10
2011,05,31,16,49,17.10
2011,05,31,16,50,17.00
2011,05,31,16,51,17.00
2011,05,31,16,52,16.90
2011,05,31,16,53,16.90
2011,05,31,16,54,16.80
2011,05,31,16,55,16.80
2011,05,31,16,56,16.80
2011,05,31,16,57,16.80
2011,05,31,16,58,16.80
2011,05,31,16,59,16.80
2011,05,31,17,00,16.90
2011,05,31,17,01,16.90
2011,05,31,17,02,17.00
2011,05,31,17,03,17.00
2011,05,31,17,04,17.10
2011,05,31,17,05,17.10
2011,05,31,17,06,17.10
2011,05,31,17,07,17.10
2011,05,31,17,08,17.00
2011,05,31,17,09,17.00
2011,05,31,17,10,16.90
2011,05,31,17,11,16.80
2011,05,31,17,12,16.70
2011,05,31,17,13,16.70
2011,05,31,17,14,16.60
2011,05,31,17,15,16.60
2011,05,31,17,16,16.60
2011,05,31,17,17,16.60
2011,05,31,17,18,16.60
2011,05,31,17,19,16.60
2011,05,31,17,20,16.70
2011,05,31,17,21,16.70
2011,05,31,17,22,16.70
2011,05,31,17,23,16.70
2011,05,31,17,24,16.60
2011,05,31,17,25,16.50
2011,05,31,17,26,16.40
2011,05,31,17,27,16.40
2011,05,31,17,28,16.40
2011,05,31,17,29,16.40
2011,05,31,17,30,16.40
2011,05,31,17,31,16.40
2011,05,31,17,32,16.40
2011,05,31,17,33,16.40
2011,05,31,17,34,16.40
2011,05,31,17,35,16.40
2011,05,31,17,36,16.40
2011,05,31,17,37,16.50